Theta_e
350 351 352 351 351 350 351 351 351 352 352 352 351 351 352 354 354 353 353 354 356 356 356 356 355 355 355 356 356 356 356 357 359 359 359 357 357 357 356 355 353 353 353 352 352 349 346 344 343 341 341 340 340 342 341 339 337 338 336 336 334 334 332 329 326 326 330 332 333 334 334 336 335 337 336 337 337 343 347 340 340 339 341 342 342
350 351 352 352 351 351 351 352 352 353 352 352 351 351 351 352 355 355 353 354 356 356 357 357 356 355 354 355 356 357 357 356 358 359 358 357 357 357 356 355 353 353 353 352 352 351 348 346 344 343 341 340 340 340 341 341 337 337 337 337 335 336 335 333 330 329 328 330 332 334 334 336 333 336 336 335 336 340 341 338 338 338 339 341 341
352 352 351 352 352 352 352 352 353 353 352 352 352 352 351 350 353 355 355 355 356 357 356 356 356 356 355 355 355 356 356 356 357 358 358 357 357 357 357 356 355 353 352 352 352 351 349 347 346 345 344 341 341 341 341 341 340 337 336 338 336 336 337 335 331 329 329 330 331 332 333 334 333 333 335 337 338 339 339 337 337 341 342 341 340
352 352 351 351 352 352 351 352 352 353 352 353 352 352 352 351 351 352 356 357 356 357 357 356 356 355 355 355 355 355 356 356 356 357 358 358 357 357 356 356 356 355 354 353 352 351 350 348 347 346 345 342 341 341 340 341 340 338 336 336 337 336 337 336 334 332 330 329 332 332 333 332 333 333 336 337 337 336 336 337 336 339 340 340 339
353 352 352 351 352 352 352 352 351 352 352 353 353 353 353 352 351 350 352 355 357 357 357 357 356 355 355 354 355 355 355 356 356 356 357 358 358 357 357 356 356 355 355 354 356 352 350 349 348 347 346 344 343 341 341 339 341 339 337 335 336 337 337 337 335 333 331 330 331 333 334 334 334 334 336 335 335 336 335 334 333 334 337 339 339
354 353 353 352 351 351 352 352 351 351 352 353 353 353 353 352 351 351 350 351 354 357 356 356 356 356 355 355 355 355 356 356 356 356 356 357 358 358 357 357 356 356 355 355 355 353 351 350 349 348 346 345 344 343 342 340 340 339 338 337 335 336 336 336 336 334 332 331 331 332 331 333 332 333 334 336 335 334 334 335 334 333 333 334 338
354 353 353 353 352 352 352 352 352 352 352 352 353 353 353 353 352 350 351 350 350 353 356 356 355 356 356 356 355 355 355 356 356 356 356 357 357 357 357 356 356 356 356 356 355 355 353 351 350 349 348 347 346 345 343 342 341 340 340 339 337 335 335 335 336 334 333 331 331 331 333 334 333 332 333 336 337 336 334 333 333 335 334 332 332
355 354 354 353 352 353 353 353 353 353 353 353 353 353 353 352 352 351 351 349 349 350 353 356 356 355 355 356 356 356 355 355 356 357 357 357 357 357 357 356 356 355 355 356 356 355 355 354 352 350 349 348 347 347 346 343 342 340 341 340 338 336 335 334 335 335 334 332 332 331 331 332 331 332 333 333 332 332 335 334 332 333 334 335 333
355 355 354 353 353 354 354 354 354 354 354 353 352 352 352 352 352 351 350 350 350 350 351 354 355 355 354 355 356 357 356 355 355 356 357 356 357 356 357 356 356 355 354 355 355 355 355 355 354 352 351 347 342 343 343 341 345 341 341 341 340 338 336 335 335 335 334 333 332 332 331 331 332 332 331 331 331 331 333 334 333 333 334 334 336
356 355 354 354 354 354 355 355 354 354 353 353 352 352 352 351 351 350 350 350 350 350 350 351 353 354 354 353 354 356 357 357 348 336 341 356 356 357 357 356 356 355 354 353 353 354 355 355 356 348 342 340 338 336 336 335 336 343 344 341 341 339 337 336 334 335 335 333 333 332 331 331 333 333 333 333 334 333 331 332 331 332 328 331 333
356 356 355 355 355 355 354 354 354 353 353 353 353 352 352 351 350 350 350 350 350 350 350 350 351 352 353 353 353 353 355 356 339 333 333 337 352 356 356 355 356 355 355 353 352 353 354 355 355 352 344 340 341 334 335 334 333 335 337 338 338 341 338 337 336 336 335 334 334 333 332 332 333 335 334 335 334 333 332 332 332 331 329 328 327
357 357 357 356 356 355 355 354 354 353 353 352 352 352 352 351 350 349 348 349 350 350 350 350 351 352 353 353 353 353 353 340 334 332 332 331 337 356 356 356 356 355 355 354 354 353 353 353 354 355 354 351 350 346 337 332 331 332 333 334 334 335 337 339 338 336 335 334 334 334 333 332 333 334 335 335 334 334 334 332 332 331 330 329 329
358 357 358 357 356 356 355 354 354 353 353 353 353 352 351 350 349 348 347 348 349 349 349 350 350 351 352 352 352 354 354 339 332 330 331 330 330 341 356 356 355 355 355 355 354 353 353 352 353 354 355 344 347 350 348 344 331 328 330 332 333 332 332 333 335 341 339 336 335 335 335 335 333 334 336 336 337 334 334 332 332 332 332 331 331
357 357 358 357 357 356 356 354 353 353 353 353 352 351 350 349 349 349 349 348 348 349 349 349 350 349 350 351 352 353 354 340 330 327 328 328 329 333 354 356 355 355 355 355 355 354 353 352 351 352 354 354 352 351 350 349 346 341 337 337 339 339 330 329 330 331 339 339 337 335 337 337 335 336 338 338 336 335 334 333 333 332 332 332 334
355 356 357 357 357 357 356 355 353 353 353 352 352 351 351 350 349 349 349 348 347 348 349 349 349 350 350 351 351 352 354 337 329 326 325 325 327 329 351 356 356 355 355 355 355 355 354 354 353 352 352 353 354 351 351 350 349 347 343 341 340 342 343 341 338 338 338 340 339 338 339 339 339 338 338 338 338 338 338 336 336 335 335 336 335
352 355 356 356 356 357 356 355 354 353 352 351 351 351 351 351 349 349 349 349 349 349 350 351 350 350 350 350 350 350 353 333 327 324 323 323 325 338 349 353 355 355 355 355 355 356 355 355 353 353 353 352 345 334 340 351 350 348 346 344 343 343 343 338 335 336 340 341 341 341 340 340 336 340 340 338 339 339 340 340 337 335 333 332 331
351 352 354 355 356 356 357 355 354 353 352 351 350 350 350 351 351 351 349 349 348 348 349 350 352 352 352 352 350 350 352 338 325 322 321 321 324 343 348 351 354 355 355 355 355 355 356 356 355 354 353 353 342 332 330 336 350 349 347 346 345 344 344 345 334 329 329 329 329 331 331 331 329 327 327 330 336 338 338 335 334 335 332 330 330
352 352 353 354 355 356 357 356 355 354 353 351 351 350 351 351 351 352 350 349 348 349 349 350 352 353 353 353 353 352 352 342 322 319 319 319 327 345 348 350 352 353 354 355 356 355 355 348 355 355 354 354 337 329 329 333 347 349 349 347 346 344 345 346 346 342 328 326 327 328 329 329 329 328 327 327 328 332 337 333 335 335 332 332 329
351 351 352 354 355 356 357 357 356 355 354 353 353 351 351 351 351 352 351 350 350 350 350 349 350 351 353 354 348 351 354 344 317 319 317 318 328 347 350 351 351 352 353 354 355 355 355 350 344 344 349 347 333 328 326 331 347 350 350 349 347 346 347 346 345 345 343 338 337 335 336 335 336 335 336 327 329 340 339 338 337 335 333 332 332
350 351 352 354 355 356 357 357 357 356 355 354 354 354 353 352 351 351 351 351 350 350 350 349 349 350 351 352 354 354 354 354 332 317 316 316 320 345 351 351 350 351 352 353 353 354 355 354 348 329 327 329 327 324 323 321 344 350 351 349 348 347 350 348 347 346 345 344 342 340 339 340 339 339 338 338 335 338 339 340 339 337 335 334 333
348 351 352 354 355 355 357 357 357 357 356 356 356 355 355 353 353 352 352 352 351 350 350 350 349 350 350 351 352 353 354 354 341 314 315 315 316 327 350 352 352 353 353 352 353 353 354 354 355 338 325 323 321 321 319 318 325 348 351 350 350 349 346 350 347 340 345 345 344 342 341 340 340 340 339 339 339 338 339 338 341 340 337 335 334
349 350 352 354 355 355 357 358 359 358 358 357 356 355 356 356 355 354 353 353 351 350 350 349 350 350 351 352 352 353 354 346 353 316 315 313 315 316 343 353 353 354 353 354 354 354 355 356 356 343 328 322 320 318 317 317 318 336 348 333 333 332 344 349 350 347 345 344 344 342 342 341 340 339 339 339 339 340 340 340 340 341 341 339 337
352 349 351 354 355 356 357 358 358 360 358 358 357 356 357 357 356 356 354 354 353 352 352 351 350 350 350 351 352 354 355 352 336 331 314 313 312 313 321 339 335 352 355 354 354 355 357 357 355 340 327 321 317 316 316 317 317 326 323 324 326 327 333 345 346 348 346 344 343 341 341 341 340 339 339 339 340 340 341 341 342 342 342 342 342
353 349 350 353 355 356 358 359 360 360 360 359 358 357 357 358 358 357 356 355 354 353 353 353 352 351 351 350 352 353 355 355 337 327 326 313 313 312 313 319 328 346 354 356 356 356 357 358 352 332 323 316 315 315 316 316 326 319 316 319 322 325 337 342 341 342 340 338 339 341 341 342 342 341 341 341 341 341 342 342 342 344 343 342 343
355 349 349 352 354 356 358 360 360 361 360 360 358 358 358 359 357 357 357 356 355 354 354 353 353 352 351 351 350 351 355 356 355 336 323 316 313 312 312 315 318 322 344 354 353 349 319 309 311 316 318 316 314 313 314 314 312 313 314 315 319 329 334 338 340 339 337 338 339 341 342 342 343 343 344 344 342 342 340 340 342 341 342 342 341
358 351 349 352 354 357 358 359 361 361 361 361 361 360 360 359 358 357 358 357 356 355 354 353 352 352 351 352 350 352 353 355 358 351 333 322 317 313 312 313 315 316 318 327 318 315 315 315 316 323 325 326 331 335 336 336 322 318 316 318 327 330 331 335 337 337 335 335 335 337 340 342 343 345 345 344 340 337 336 336 337 337 338 338 337
359 355 351 353 356 357 358 359 360 362 362 362 362 362 362 361 359 357 358 358 356 355 355 353 352 352 352 352 353 352 353 351 342 338 334 333 332 328 322 323 318 317 325 331 327 333 333 333 334 326 322 323 325 323 326 329 330 331 332 331 331 333 334 335 337 336 335 336 335 336 338 340 341 341 342 341 337 337 337 336 335 335 335 336 335
357 353 354 356 357 357 358 369 364 361 362 363 362 363 362 362 360 358 358 358 356 356 355 354 353 354 354 354 354 353 348 340 340 340 336 333 331 330 330 332 330 329 331 334 335 338 338 330 329 336 338 339 340 339 338 336 334 333 335 335 335 334 333 327 328 334 337 339 338 339 337 338 337 338 339 337 336 337 337 335 335 334 334 335 333
352 347 351 356 358 360 359 364 360 361 354 331 319 315 318 334 351 356 340 340 358 360 358 357 356 357 357 356 356 347 340 338 335 312 318 315 331 332 331 331 331 330 328 324 333 333 332 333 333 334 334 335 337 339 340 341 341 340 339 338 338 338 337 336 335 335 335 336 336 337 337 338 337 338 338 337 335 336 338 336 335 334 334 334 332
347 347 348 349 353 356 359 361 360 359 348 335 330 323 316 303 308 328 328 322 309 315 337 353 354 341 331 320 328 347 344 335 307 301 300 297 296 297 297 299 306 316 313 315 327 329 329 329 330 330 331 331 332 333 336 336 336 337 338 331 337 338 337 337 337 337 337 336 338 337 337 338 338 338 337 337 337 336 335 331 334 334 332 331 331
345 345 346 347 347 352 354 357 357 355 347 341 335 329 325 319 303 301 310 312 307 301 302 308 314 320 329 322 314 307 307 301 299 298 297 297 297 297 297 298 301 304 311 325 327 325 325 325 327 328 328 328 329 330 331 331 330 330 331 331 332 332 330 332 334 333 333 334 335 336 336 337 337 338 337 337 337 336 336 334 334 334 332 331 330
343 343 345 344 345 348 351 353 352 347 344 340 336 331 328 324 321 307 301 304 304 302 301 302 303 306 310 316 319 318 306 299 298 298 298 297 297 296 297 297 298 301 305 312 326 324 324 324 323 324 324 324 324 325 326 327 327 328 328 328 328 329 328 329 329 331 331 332 332 332 334 335 336 336 337 336 334 336 335 334 333 332 332 332 331
344 344 343 344 344 347 347 348 347 344 341 337 333 331 328 325 322 321 318 305 301 300 300 301 301 303 304 305 308 309 307 301 297 298 298 298 298 297 297 296 296 302 312 321 322 320 319 320 320 319 322 323 324 325 325 326 326 327 327 326 326 327 328 328 326 328 327 328 329 330 331 332 333 333 332 334 334 334 333 333 334 333 332 331 330
346 343 342 342 341 341 342 344 344 342 339 335 332 329 327 326 324 323 322 324 324 315 306 301 300 301 300 301 301 300 298 298 298 297 297 298 297 299 301 304 298 299 310 321 317 316 314 315 317 318 319 321 322 323 324 325 325 325 326 326 326 327 327 328 327 326 326 326 327 327 328 330 331 332 334 335 336 335 333 331 333 333 332 331 330
343 350 351 347 339 339 339 340 340 340 337 334 332 330 328 328 330 329 326 325 324 324 324 324 312 307 311 305 299 298 298 297 297 296 296 296 297 297 303 320 323 321 318 316 317 314 317 317 319 319 318 320 321 323 324 325 325 325 325 326 327 327 327 326 326 326 326 326 326 327 327 327 329 330 331 332 333 333 333 332 333 332 332 332 331
340 340 339 341 339 338 337 337 338 339 337 334 333 332 333 332 332 330 327 329 328 325 324 324 321 309 303 300 297 298 297 297 296 295 296 296 297 301 321 319 318 318 318 317 318 319 320 320 319 319 320 321 324 323 324 326 326 327 327 327 326 325 325 325 324 325 325 326 326 325 324 327 328 329 331 332 332 332 333 332 331 331 330 331 331
334 336 338 338 338 337 337 336 335 335 334 335 335 335 335 334 333 331 331 330 330 329 327 327 326 325 319 316 305 298 297 297 297 296 296 297 294 310 322 319 319 317 318 318 319 319 319 319 319 320 323 325 325 326 328 328 328 327 322 326 325 325 324 324 324 323 323 324 325 326 327 328 329 330 330 329 330 331 332 332 331 328 327 327 325
331 332 334 337 337 336 334 333 333 334 334 334 336 336 337 336 334 333 332 331 332 330 328 326 326 324 323 321 328 319 307 297 299 303 303 304 312 320 321 321 320 319 319 320 320 320 320 319 320 321 325 325 327 328 328 328 327 326 325 324 324 324 318 322 322 323 324 325 326 327 327 327 329 329 328 328 328 329 329 329 329 329 328 324 325
331 327 326 328 330 333 333 333 332 331 331 331 332 334 333 332 332 332 332 332 331 329 327 325 323 322 320 319 321 323 322 321 321 319 319 319 320 320 321 320 319 319 320 319 320 320 320 322 323 322 323 326 327 328 327 325 325 324 323 323 323 323 322 322 322 322 322 322 323 325 327 328 329 330 329 329 328 328 329 328 328 328 328 327 327
331 330 328 327 330 329 330 331 329 328 329 327 327 329 329 329 328 328 328 328 326 324 322 320 319 318 319 319 319 324 324 322 320 320 320 320 321 321 321 322 322 322 322 322 322 322 323 325 324 324 323 324 325 325 323 322 322 322 322 322 321 320 320 320 320 320 320 321 321 321 322 323 326 328 330 330 330 330 329 329 328 328 328 327 326
329 330 332 326 325 327 329 328 326 325 325 325 325 325 325 326 325 326 324 324 323 323 322 321 318 316 313 308 306 311 322 322 322 323 322 322 322 321 321 323 323 322 322 322 322 322 323 323 323 323 323 322 322 322 322 321 321 321 321 320 319 318 318 318 319 319 319 319 319 318 319 319 319 320 320 322 320 324 328 328 328 327 324 324 319
327 326 326 325 325 325 324 324 323 324 324 324 323 323 324 323 323 323 322 322 322 321 319 318 318 316 310 305 304 305 318 320 320 321 322 322 323 323 322 322 322 321 321 322 322 324 324 324 322 322 323 323 322 322 321 320 320 320 320 319 317 317 317 317 318 318 318 318 317 317 317 317 318 318 318 313 318 319 321 318 316 316 316 315 315
326 325 324 324 323 322 322 322 322 320 320 319 320 323 322 321 320 320 320 319 318 317 316 315 315 315 313 307 308 308 315 316 318 317 318 320 322 323 324 324 323 322 322 322 323 323 325 327 327 325 323 322 321 322 321 321 320 319 319 318 317 316 316 317 317 317 318 317 317 316 317 317 317 317 317 317 317 317 317 317 316 316 315 315 314
324 323 322 321 320 320 320 319 319 319 319 320 319 318 317 317 317 317 317 316 315 315 314 313 312 312 311 310 309 310 312 313 313 313 314 316 318 320 322 323 323 322 324 325 325 327 329 329 328 327 324 321 320 319 319 318 318 319 319 318 317 316 316 316 316 317 317 317 316 316 316 316 316 316 315 316 316 316 315 315 314 314 314 314 314
321 320 319 318 317 316 316 317 316 316 317 315 314 314 315 313 313 314 314 313 313 312 312 311 310 310 310 309 310 310 310 310 311 311 311 313 315 316 317 318 319 321 321 320 321 322 322 322 324 325 324 322 320 319 319 318 317 318 317 317 316 316 316 316 317 317 317 317 316 316 316 316 315 315 314 313 314 314 313 312 312 312 311 311 311
320 319 318 316 316 316 315 314 315 313 313 312 311 311 311 311 311 311 311 311 311 310 309 309 308 308 308 307 308 308 307 308 308 308 309 310 311 312 313 314 315 314 313 312 313 314 314 313 312 312 312 313 314 316 318 318 317 316 315 314 314 314 314 315 316 317 317 316 316 315 315 314 315 316 319 316 315 315 313 313 313 312 312 311 311
318 317 317 315 314 314 314 313 313 312 312 312 312 311 310 310 310 310 310 309 308 308 307 307 306 306 306 305 305 305 305 305 305 306 306 307 309 310 310 311 311 311 309 308 308 308 308 308 307 307 307 307 308 310 312 314 315 315 314 312 311 310 310 310 313 316 316 316 315 314 314 313 314 313 314 315 315 315 314 313 313 313 312 312 311
315 315 314 313 311 310 309 309 310 312 310 311 310 310 309 308 308 307 307 306 306 306 305 305 305 305 305 304 304 304 304 303 304 305 305 305 305 306 307 307 308 308 307 305 305 305 305 304 304 305 305 304 304 304 306 308 309 309 308 308 307 303 302 303 311 314 315 315 315 314 313 313 313 313 313 312 312 313 313 313 313 313 312 312 311
313 312 311 310 309 308 307 307 307 306 306 307 307 306 306 305 305 304 305 304 304 304 303 302 303 303 304 304 304 303 303 303 302 303 303 304 304 304 304 305 305 305 304 303 303 303 302 302 303 304 302 302 301 301 301 303 305 304 303 302 299 296 294 295 301 308 305 314 314 314 313 313 312 312 312 312 312 312 311 312 313 312 312 311 311
311 311 310 309 307 306 306 305 304 303 304 303 302 302 303 302 302 303 303 302 302 302 302 302 302 301 302 302 303 302 302 301 300 301 301 302 302 303 302 302 303 302 301 301 301 301 301 301 301 301 300 300 299 299 299 300 302 302 300 297 294 293 293 294 296 298 301 309 312 312 312 311 310 310 310 310 310 310 310 310 310 310 311 311 311
312 310 309 308 307 306 305 303 302 302 301 301 300 300 300 299 299 299 299 299 298 299 299 299 299 299 299 300 301 301 300 300 300 300 300 300 300 301 301 301 301 301 300 300 300 299 299 299 299 298 299 298 298 298 298 299 299 298 296 294 292 293 293 293 295 292 291 295 308 312 311 310 310 310 310 310 309 309 311 311 309 308 308 308 309
Wind_Speed
16 15 14 14 14 15 14 14 14 12 11 11 11 12 11 11 11 12 9 10 9 10 11 11 11 11 11 10 10 10 10 10 9 9 9 9 9 9 8 9 10 9 8 9 8 8 9 9 9 8 7 7 7 7 6 6 6 7 7 7 7 6 7 7 8 8 5 3 4 5 6 5 6 8 9 8 7 7 7 8 8 8 8 8 8
16 15 14 15 16 16 16 14 14 12 13 12 12 11 11 11 11 9 11 11 10 11 12 11 11 11 11 11 11 11 11 11 10 9 10 10 10 8 8 9 10 9 8 10 10 8 8 10 10 9 8 9 8 8 8 7 6 6 7 7 7 8 8 8 8 7 9 3 3 3 2 4 7 6 10 9 8 5 7 7 6 7 8 7 7
18 16 16 16 17 16 15 14 14 14 14 13 13 12 11 11 9 10 12 11 11 11 12 11 11 11 11 11 11 11 12 11 11 10 11 11 12 10 10 10 11 11 11 12 11 10 9 10 11 10 7 8 9 9 7 7 6 7 8 6 8 8 8 8 7 7 7 7 3 3 5 4 8 7 7 7 7 7 8 7 7 6 6 7 7
16 16 15 16 16 15 15 14 16 15 15 13 14 13 12 11 10 11 11 10 11 11 11 12 11 11 12 12 12 12 12 11 11 12 12 12 12 12 11 11 11 12 13 12 11 11 12 11 12 11 10 10 10 9 8 7 8 8 7 7 7 8 8 7 8 7 6 7 5 7 5 6 7 4 5 5 6 6 7 7 5 6 7 6 7
16 16 16 17 15 15 16 15 16 16 16 14 15 15 14 12 11 12 11 11 11 11 10 11 12 12 12 13 13 13 13 13 13 13 12 12 13 12 12 12 12 13 13 12 11 12 12 13 13 11 10 11 10 9 8 9 8 7 8 7 7 7 5 7 7 6 6 8 6 5 4 5 5 5 5 7 5 5 4 6 7 8 7 7 6
16 16 16 16 16 17 17 16 17 17 16 15 16 15 14 14 13 12 12 13 12 12 12 11 12 13 14 14 14 14 13 13 13 14 14 13 13 13 12 12 13 12 12 12 12 12 13 14 13 11 11 12 12 11 10 11 9 9 9 8 7 5 6 6 6 6 7 8 7 6 4 6 5 6 6 7 7 7 6 6 5 5 6 6 7
17 17 17 17 16 17 17 16 15 15 16 15 14 14 15 15 15 14 13 14 13 13 13 13 12 13 14 14 14 14 13 13 13 13 13 13 13 13 13 13 13 12 12 13 12 12 12 12 12 12 12 13 13 13 12 11 10 11 11 10 7 6 7 7 6 6 7 7 6 7 6 6 6 8 6 6 7 8 9 7 8 8 6 8 8
17 17 17 17 16 17 16 16 16 16 15 15 15 15 14 14 14 14 13 14 14 14 14 14 13 13 14 13 14 13 12 12 13 13 13 14 13 13 13 13 13 13 13 13 13 13 13 13 12 12 13 13 14 13 12 12 10 11 10 9 8 8 8 7 6 7 8 7 8 8 7 6 5 4 1 4 6 7 8 9 11 9 9 8 8
17 17 16 16 16 16 15 14 14 14 15 15 15 15 15 14 14 14 13 14 13 14 14 14 14 14 14 13 13 12 12 13 12 13 13 14 14 14 14 14 13 13 13 13 13 13 12 12 13 13 14 16 18 16 15 14 11 12 11 10 11 10 9 7 8 8 9 8 9 6 6 7 7 7 7 8 12 15 9 7 9 8 7 6 8
17 17 17 17 17 17 16 14 14 14 15 15 15 15 15 14 14 14 14 14 14 14 14 14 14 15 14 14 13 12 12 11 15 20 18 14 14 12 12 13 13 13 13 13 12 13 13 12 13 18 18 18 18 18 19 18 18 15 12 11 12 11 11 10 10 10 10 11 11 10 9 11 11 11 12 12 10 6 5 8 11 9 3 6 6
16 16 16 16 15 15 14 14 14 14 15 14 14 15 16 14 14 14 14 14 15 15 14 15 15 15 15 14 15 13 13 12 19 19 20 21 15 13 13 13 12 12 12 12 13 13 12 13 12 13 15 16 17 20 20 21 20 21 20 17 15 15 12 13 12 12 12 12 12 10 12 13 13 11 12 11 8 11 11 8 10 7 9 9 11
16 16 16 15 15 15 14 14 14 14 14 15 15 14 14 14 14 14 14 15 14 13 15 15 15 15 13 14 15 15 14 16 19 19 20 21 19 15 12 11 11 12 12 13 12 11 12 12 11 10 11 14 14 15 18 21 21 22 22 21 20 20 19 16 14 12 13 13 12 13 13 14 14 12 12 11 12 9 10 9 11 11 11 11 10
15 16 16 15 15 15 15 15 15 15 15 14 14 13 14 14 15 15 16 14 12 14 15 15 16 15 15 15 16 15 14 18 19 20 21 21 22 18 12 12 12 12 12 13 13 12 11 10 11 10 11 16 15 14 13 15 19 22 22 22 21 21 21 23 21 17 13 14 14 14 14 14 14 14 13 14 10 11 10 11 11 10 11 12 13
15 15 15 15 15 15 15 15 15 15 15 15 14 14 15 16 15 14 12 12 14 15 15 16 15 15 15 16 15 14 15 17 20 20 20 21 21 19 15 14 12 12 13 13 12 12 12 11 11 11 11 11 12 14 14 14 13 14 14 14 15 19 21 24 24 23 18 14 14 16 15 13 15 15 14 11 11 14 12 14 12 11 11 15 17
14 14 15 15 15 15 15 15 15 15 15 15 15 15 16 15 15 14 13 14 15 15 15 15 15 15 16 15 14 14 14 19 19 20 20 21 21 18 14 13 12 12 12 12 13 13 12 12 12 13 13 12 12 13 14 14 13 13 14 15 16 17 17 18 17 15 15 15 15 17 16 14 16 16 11 10 15 14 14 16 16 16 15 13 8
14 14 15 15 15 15 15 15 15 14 15 15 15 16 15 16 16 14 13 13 13 12 12 13 14 15 15 14 14 15 14 17 18 19 21 19 18 12 12 14 14 13 12 12 12 12 12 13 13 13 14 14 15 18 17 14 13 15 15 15 15 16 18 19 19 19 18 17 17 18 17 16 16 14 12 11 11 11 10 8 5 5 7 9 12
14 13 14 15 15 15 15 15 15 15 15 15 16 15 15 15 14 12 14 14 14 14 15 14 13 13 14 14 15 15 14 13 16 18 18 18 13 11 12 12 13 14 14 12 12 12 12 13 13 13 14 15 16 17 18 17 15 16 15 15 15 15 18 15 15 20 23 24 24 24 23 20 18 18 17 19 15 12 10 10 12 9 10 13 12
13 13 13 14 15 15 15 16 16 15 15 16 16 15 15 14 14 13 15 15 15 15 14 13 13 13 14 15 15 14 13 11 15 16 18 19 17 13 12 12 14 14 13 13 12 11 13 18 17 15 15 15 16 18 19 17 16 16 15 15 16 18 19 11 8 13 20 22 24 24 22 21 20 19 18 19 20 16 13 17 14 10 14 13 13
12 12 12 12 13 15 15 16 17 16 16 16 15 16 15 15 14 14 14 14 15 13 12 13 13 12 13 14 15 15 12 10 15 17 19 21 18 12 12 12 13 13 12 13 12 12 12 14 20 19 18 17 19 18 20 17 15 16 15 15 18 20 18 6 12 13 10 11 15 16 17 20 18 16 16 20 21 20 18 18 12 13 14 13 13
9 10 11 12 12 13 14 16 16 17 17 16 15 15 13 12 13 13 13 12 12 12 12 12 14 13 12 12 12 13 12 9 12 19 20 21 23 15 11 11 13 13 13 13 12 12 12 12 14 19 22 21 19 19 19 21 18 16 14 16 18 22 11 9 14 12 14 15 15 15 17 16 16 16 16 15 15 18 19 18 15 14 14 14 13
7 8 9 11 12 13 12 14 16 16 16 15 15 14 12 12 12 12 13 12 11 11 12 12 12 12 11 11 11 11 10 9 10 19 20 22 23 20 12 13 13 12 13 13 12 12 11 12 12 16 19 20 21 21 20 20 21 17 17 17 18 18 14 12 13 17 16 16 15 13 13 13 14 14 15 16 16 16 16 17 17 16 16 15 14
5 8 9 9 11 12 13 12 13 13 13 13 13 13 11 12 12 13 11 11 13 13 12 11 11 11 10 9 9 9 9 14 9 16 21 22 22 25 14 13 13 12 12 12 11 11 11 11 11 14 18 19 20 21 21 19 21 16 19 21 23 22 17 14 12 10 11 12 11 10 12 12 12 13 16 16 17 17 17 18 19 19 18 16 16
3 6 8 9 9 10 10 12 12 9 10 12 13 13 11 11 11 11 11 11 11 12 11 10 10 9 8 7 5 6 7 9 15 13 19 22 23 23 24 17 16 13 12 12 11 11 11 12 13 16 16 18 18 19 19 22 17 15 22 22 23 24 20 13 12 10 7 8 8 12 14 13 13 15 15 16 16 16 16 17 16 15 13 13 14
2 5 6 7 9 8 9 10 10 10 12 12 12 12 11 11 10 10 11 11 10 11 9 9 8 9 9 6 5 5 5 7 11 17 17 22 21 23 23 23 18 13 13 11 10 11 11 11 10 14 16 17 17 17 18 17 14 18 21 23 23 22 16 13 7 3 3 9 14 14 14 14 13 13 15 15 14 14 15 11 7 7 9 10 12
3 4 5 5 6 6 7 8 9 9 9 10 10 10 9 9 9 8 8 9 9 9 8 7 8 8 7 7 6 6 6 7 6 12 18 19 21 22 23 24 23 19 13 10 5 2 3 7 9 7 6 8 8 8 8 11 15 16 17 17 14 10 11 11 5 5 8 13 15 15 16 15 13 14 14 14 12 9 2 1 2 8 11 12 15
4 4 4 5 5 6 7 6 7 8 9 9 10 9 11 10 10 8 9 9 9 8 8 7 7 7 7 6 6 7 6 6 7 4 6 8 9 11 11 10 11 11 10 9 8 11 13 12 10 5 3 3 3 4 6 7 10 13 15 14 9 10 10 11 7 10 12 19 18 16 12 8 10 14 16 11 5 3 7 11 13 13 13 14 15
5 1 5 5 6 7 8 7 7 6 6 6 6 7 7 8 8 8 8 8 8 7 7 7 7 6 7 6 6 6 7 5 3 3 3 6 6 7 8 8 9 6 6 9 10 10 12 10 8 8 7 6 6 6 6 6 6 7 7 7 8 9 10 10 9 7 12 13 14 14 9 12 15 14 13 8 4 7 11 12 13 14 13 13 14
5 2 3 6 7 8 8 11 11 8 7 6 6 6 7 8 8 8 9 8 8 7 7 7 8 8 7 7 6 6 4 4 4 5 4 5 4 4 5 6 6 7 7 6 6 7 7 7 8 7 6 7 7 6 5 5 6 6 6 5 5 7 9 10 8 6 8 10 12 11 8 11 14 16 14 10 9 12 11 12 14 14 14 13 12
4 4 1 3 6 6 7 8 8 8 7 11 10 9 5 4 2 1 3 3 3 8 8 7 7 7 7 7 7 4 3 5 4 2 2 1 4 5 5 5 5 4 4 2 1 0 1 2 3 4 3 4 5 5 5 5 5 5 5 5 6 7 7 6 8 9 8 9 11 11 12 12 13 13 14 12 13 15 12 12 13 14 13 13 16
5 5 4 3 3 4 5 7 7 8 9 9 9 9 14 15 10 5 2 8 9 6 3 4 3 6 7 4 2 6 7 5 7 7 6 8 9 9 8 8 6 5 4 4 3 2 3 3 4 3 4 3 4 4 5 5 6 6 6 6 7 7 8 8 9 10 9 10 11 11 12 12 12 12 13 15 14 14 15 16 15 14 14 15 16
4 5 5 4 2 5 6 6 6 7 8 8 9 10 9 13 18 16 11 12 14 15 14 15 14 9 10 7 8 16 15 12 10 8 10 11 11 10 10 8 8 7 6 7 5 4 4 4 4 3 4 4 5 5 6 6 7 7 8 8 8 9 9 9 9 9 9 10 11 11 12 13 14 13 14 14 15 15 14 14 15 14 16 16 17
4 4 4 3 4 4 5 6 8 9 7 7 8 9 10 11 11 15 15 15 17 18 16 16 17 16 15 15 11 7 8 9 10 11 11 11 11 11 10 10 8 7 3 6 6 4 3 3 3 4 3 4 4 3 5 5 5 6 7 8 9 9 9 10 10 11 12 12 12 12 12 13 14 14 14 15 15 15 15 15 14 14 15 16 18
4 4 4 4 5 4 5 6 7 9 9 9 8 8 10 11 12 10 11 15 18 17 15 15 15 15 15 13 12 11 10 8 10 10 11 11 12 12 11 11 11 8 9 9 7 5 3 3 2 3 4 5 5 5 6 6 6 7 7 8 9 10 10 12 12 12 12 13 13 13 13 14 14 14 14 15 15 15 15 15 15 16 17 17 18
4 3 4 4 5 5 6 6 7 7 7 8 9 9 8 9 10 11 11 9 11 13 14 13 14 15 13 14 14 12 10 10 9 9 9 9 9 8 10 7 7 8 7 6 5 4 3 1 0 1 2 3 4 5 5 6 6 7 7 8 8 9 11 11 11 12 12 13 13 14 14 14 13 14 15 15 15 15 15 15 17 18 19 20 19
5 7 11 7 5 6 5 6 7 8 8 9 10 11 10 10 10 8 8 10 9 9 7 5 7 11 11 8 9 11 10 9 8 8 8 8 8 8 7 6 6 5 5 3 4 3 2 1 1 1 2 2 4 4 5 5 6 6 7 8 9 10 11 11 12 12 13 13 14 14 14 15 15 15 15 15 14 14 14 15 16 18 20 20 20
5 5 5 6 7 6 6 6 7 8 8 8 9 10 10 9 9 8 9 12 10 5 6 4 4 5 10 9 10 11 10 9 9 9 9 9 9 5 5 5 6 5 4 2 3 2 1 0 0 1 2 3 3 4 4 6 6 7 8 9 10 10 11 12 12 12 13 13 14 16 15 15 15 15 15 16 17 16 15 14 14 14 15 15 12
5 5 5 5 6 7 7 7 7 9 9 9 9 8 8 8 9 11 11 8 9 7 6 4 5 7 7 5 5 7 7 8 8 7 6 6 6 1 4 4 5 3 4 2 1 1 1 1 1 2 4 5 5 5 6 6 7 8 8 9 9 10 10 11 13 14 14 14 14 14 15 15 14 14 14 15 14 14 14 14 14 15 15 18 17
8 7 5 6 6 7 8 8 8 9 8 6 6 8 8 8 8 9 9 9 9 7 6 5 6 7 7 4 4 4 6 5 7 6 5 4 2 4 6 6 4 4 2 1 0 0 0 1 1 2 4 4 5 5 5 6 6 7 8 8 9 9 14 14 14 13 12 12 12 12 13 14 14 14 14 15 15 14 13 12 12 13 14 18 18
8 13 15 15 11 8 8 9 9 9 9 9 8 7 7 6 5 6 7 7 7 7 7 8 8 8 6 4 5 3 6 5 6 6 5 4 3 4 4 3 3 2 1 1 1 1 2 4 4 5 4 4 4 4 5 6 6 6 7 8 9 9 10 9 11 11 11 11 12 12 12 13 12 12 12 13 13 13 13 13 12 12 13 12 13
9 8 10 14 10 11 10 10 10 10 10 10 10 9 9 9 8 8 9 10 10 9 9 10 9 8 6 6 6 7 8 6 5 5 5 5 5 4 3 4 5 6 6 6 6 6 6 5 4 5 4 4 4 5 4 5 6 7 7 7 8 9 9 9 9 10 11 11 11 12 13 14 13 12 12 12 12 11 12 12 12 12 13 12 12
8 9 10 11 11 11 11 11 11 10 9 10 9 10 10 9 9 9 9 10 9 10 10 9 8 7 8 9 11 10 8 7 5 6 6 5 5 5 5 6 6 7 7 7 6 6 5 5 5 4 4 3 4 4 5 5 6 6 7 7 7 7 8 8 9 10 11 11 11 10 10 11 11 10 10 9 10 10 10 11 10 8 5 6 1
9 9 10 9 10 11 10 10 10 11 10 10 11 10 9 9 9 9 9 9 9 9 9 8 8 7 12 19 15 14 9 7 6 6 6 6 6 6 6 6 6 6 5 5 5 5 5 5 4 3 4 5 5 5 6 5 6 6 6 7 7 8 8 9 9 10 10 10 10 9 8 9 10 9 10 9 9 9 7 4 7 8 10 11 9
10 9 9 9 10 10 10 9 9 10 10 10 10 9 10 9 9 9 9 9 9 8 8 8 7 7 9 13 13 12 8 8 7 7 7 7 7 7 7 6 6 6 5 5 5 4 4 4 4 4 5 5 4 4 5 5 5 6 6 7 7 8 8 9 9 10 10 10 10 10 10 10 11 11 12 12 12 12 11 10 10 12 12 13 15
10 10 10 10 10 9 9 8 9 9 10 11 11 10 9 9 9 9 9 9 9 8 8 8 7 8 8 9 10 10 9 8 8 7 7 7 8 8 8 7 7 6 5 6 6 6 6 6 5 5 5 4 4 4 4 3 4 4 5 6 7 8 8 9 9 9 9 9 10 10 10 9 8 8 9 9 10 12 13 13 13 13 13 13 14
10 10 10 9 9 9 9 8 9 9 10 10 9 9 9 9 9 9 9 9 9 9 9 8 8 8 8 9 9 9 8 8 7 7 7 7 6 7 7 7 8 9 9 10 11 11 11 10 8 7 7 6 6 6 5 4 3 3 3 5 6 7 7 8 8 8 7 7 8 8 8 8 9 9 8 7 8 11 14 15 15 15 16 15 15
10 10 10 10 10 9 9 8 8 9 9 9 9 9 9 9 9 9 9 9 9 8 8 8 8 8 8 7 7 7 7 7 7 7 6 6 6 7 7 8 8 9 9 9 9 10 10 10 9 8 8 8 8 8 7 5 4 4 4 3 4 4 4 5 7 8 8 8 7 6 6 7 8 8 9 8 9 10 9 10 9 10 10 11 12
10 10 10 10 10 10 9 8 8 8 8 9 9 9 9 9 9 9 9 10 9 8 8 7 8 8 7 8 8 8 7 7 7 7 7 7 7 7 8 8 8 8 9 9 9 9 10 9 9 8 8 8 8 8 8 7 6 6 7 6 6 7 7 7 6 6 8 9 7 6 7 7 7 7 8 8 8 9 10 10 9 10 10 11 11
10 10 10 10 10 10 9 9 10 11 9 9 9 9 8 8 8 8 8 8 9 8 8 8 7 8 8 7 7 7 8 8 8 8 8 8 8 8 8 8 9 8 8 9 9 8 8 9 9 8 8 9 9 9 9 9 8 8 8 8 8 10 11 9 6 6 6 7 7 7 5 6 6 7 8 7 6 6 7 7 8 8 9 9 9
10 10 10 10 10 10 9 9 9 9 9 9 9 9 9 9 9 8 8 8 8 9 8 8 7 7 7 7 7 7 7 8 8 7 7 8 8 7 8 8 8 8 8 8 8 8 8 8 8 7 8 8 8 8 9 9 9 9 10 9 12 18 16 15 9 7 8 5 5 7 5 4 5 5 6 6 7 7 5 4 6 8 8 8 8
10 10 10 11 11 10 10 9 9 9 9 9 9 9 9 8 9 8 8 8 9 8 8 8 9 8 8 7 8 8 8 8 8 8 8 8 8 8 8 8 8 8 8 8 8 8 9 9 10 8 9 8 8 8 8 8 9 9 9 10 15 16 15 15 13 13 9 5 4 4 5 2 3 3 3 4 5 5 4 4 4 4 3 5 7
10 10 10 10 10 10 10 10 9 9 9 9 9 9 9 9 9 8 9 9 9 8 8 8 8 8 8 8 8 8 8 8 7 7 7 7 7 8 8 8 8 7 7 8 8 8 8 9 10 9 9 10 10 9 8 8 8 10 13 16 17 17 17 15 10 11 12 7 4 4 4 3 2 2 2 2 3 3 3 3 3 3 3 2 2
Wind_Direction
190 193 188 194 192 194 196 197 200 202 204 203 203 203 201 199 200 202 192 194 187 189 193 195 195 197 196 199 200 200 202 203 201 201 203 209 208 202 194 195 202 207 203 206 208 200 207 215 219 217 210 212 216 220 221 214 208 212 209 194 193 186 177 186 205 239 282 236 223 227 216 184 206 208 207 209 210 213 208 211 211 212 215 217 221
192 192 191 193 195 196 196 197 199 199 202 203 206 207 203 201 202 196 197 201 190 192 194 195 196 196 198 201 203 204 203 204 202 200 204 207 210 205 201 195 202 207 203 208 207 208 204 211 221 221 209 216 218 219 215 215 211 214 215 203 199 192 194 180 212 205 236 277 259 275 252 195 213 202 202 203 216 205 205 211 216 214 214 214 220
192 191 192 194 197 196 194 195 196 199 201 203 208 208 209 207 198 198 202 200 198 198 197 196 195 196 200 202 204 207 205 204 204 202 205 206 208 209 205 201 202 204 205 210 208 206 207 211 217 216 212 217 223 225 215 216 209 214 219 209 206 199 193 197 179 212 220 241 219 225 220 209 211 212 214 214 208 197 205 212 211 215 222 215 217
191 191 194 198 197 194 195 196 196 199 201 203 206 207 209 209 202 205 205 200 200 204 201 200 198 198 202 204 205 209 206 205 205 206 206 206 208 209 208 207 208 209 209 209 208 205 210 213 217 211 210 216 223 224 223 217 213 215 220 219 215 207 196 198 203 194 205 218 241 209 216 200 234 242 214 213 206 208 212 219 215 217 217 217 217
190 192 194 197 196 196 198 197 199 199 201 202 205 206 207 207 205 209 206 205 204 202 203 200 201 202 205 207 207 208 208 205 206 208 209 209 209 209 210 211 212 214 214 212 208 207 210 214 216 207 205 214 223 224 221 222 222 217 218 219 217 217 205 202 211 202 195 212 232 228 210 217 225 222 197 198 229 234 237 228 215 217 221 222 221
191 192 194 196 197 198 199 199 200 200 201 202 204 205 206 206 206 209 207 209 207 205 204 201 201 204 208 209 209 209 207 206 207 209 209 209 210 211 211 212 214 215 217 218 214 211 212 215 216 206 205 210 219 220 219 220 220 222 223 221 218 209 213 215 209 213 214 222 211 235 227 211 231 229 207 203 202 219 238 245 257 242 226 236 233
190 192 193 196 198 201 200 200 200 200 201 203 204 205 206 206 206 208 206 209 207 207 207 206 206 206 209 210 211 209 208 207 208 210 211 210 211 212 213 214 216 216 219 218 217 216 217 219 217 211 208 212 216 216 216 218 215 221 222 222 215 205 213 213 205 212 220 226 234 227 225 230 209 224 227 204 214 206 210 222 245 236 225 221 235
190 192 192 195 198 201 202 201 200 200 200 201 204 207 207 207 207 207 206 208 209 209 209 207 209 209 210 210 212 210 208 209 210 210 210 211 211 213 213 214 216 218 220 220 218 218 218 218 219 217 215 214 215 218 213 217 215 220 220 217 212 206 213 210 204 212 221 226 226 230 229 224 241 255 222 167 219 247 223 207 221 227 228 224 225
190 192 193 195 198 200 202 202 201 200 199 200 204 207 208 209 208 208 207 208 210 212 211 209 209 213 214 212 213 211 210 212 211 209 210 213 212 215 214 214 215 218 220 222 220 220 220 219 220 219 219 219 217 218 216 213 210 217 219 210 214 212 215 206 208 210 224 224 234 228 228 232 228 209 214 206 207 217 209 200 230 230 223 227 240
190 192 193 196 198 198 199 199 200 199 200 202 204 205 207 208 208 209 209 208 210 211 212 211 212 213 213 213 213 213 214 215 214 210 208 209 212 215 215 217 217 217 219 222 224 222 222 221 222 220 220 220 219 220 222 219 218 216 214 206 211 211 214 211 208 213 217 222 228 220 223 232 226 217 219 221 221 222 193 197 222 225 178 235 261
191 193 196 199 199 197 196 199 199 200 202 203 204 205 207 207 208 210 211 209 209 210 210 211 213 214 213 213 213 215 216 217 212 209 210 210 209 213 215 218 217 219 220 220 223 224 225 224 227 222 220 222 223 220 221 221 221 223 223 214 210 206 210 213 216 212 214 221 225 218 223 230 230 221 224 225 213 212 215 204 217 205 207 214 237
192 194 196 197 197 195 196 197 199 202 200 204 204 205 206 207 209 210 211 212 211 210 212 213 215 214 214 215 216 217 219 217 211 208 209 210 209 212 215 218 218 219 221 222 225 225 226 226 226 226 221 220 221 223 224 224 223 223 224 222 218 215 212 208 212 215 215 221 223 221 219 225 229 219 223 216 220 214 218 212 211 210 212 217 230
192 195 197 197 196 195 195 196 198 200 201 202 203 203 205 208 210 210 212 212 211 213 214 214 216 215 214 216 218 218 221 215 211 208 208 208 209 211 217 216 217 221 221 223 225 225 225 225 227 226 230 222 220 223 222 227 229 227 226 227 226 220 221 222 218 215 210 218 223 227 219 222 227 228 217 216 208 215 214 219 220 217 217 222 230
192 194 196 196 195 195 196 197 198 199 198 199 200 201 203 208 210 211 212 210 214 216 215 217 217 216 217 218 220 221 221 217 208 208 207 207 207 204 220 218 219 222 222 222 224 226 225 224 226 230 229 224 221 221 224 226 226 228 231 232 232 232 230 227 224 224 221 220 222 230 229 213 226 228 220 205 199 214 211 220 217 218 219 225 227
194 193 195 196 195 195 195 196 198 198 198 198 199 201 202 206 206 207 207 211 214 215 215 217 219 218 220 220 222 224 226 217 207 205 207 206 205 199 217 222 226 225 225 223 224 226 226 225 226 231 230 227 223 217 221 224 225 227 227 228 231 233 231 231 227 225 226 229 228 233 234 222 229 233 224 207 212 216 211 216 210 212 219 235 265
199 193 195 195 196 194 193 195 197 197 198 199 201 202 203 203 205 203 207 212 216 218 221 221 222 221 221 222 224 230 230 216 206 204 205 206 198 199 214 222 227 229 227 224 224 226 226 225 227 231 232 231 226 214 214 219 224 229 229 229 232 235 237 232 224 221 225 227 230 233 234 229 227 229 224 215 218 223 231 240 240 226 230 237 236
203 196 196 195 194 194 193 194 195 196 197 199 202 202 202 205 206 201 207 210 210 213 217 218 220 220 221 221 223 230 233 216 202 200 201 198 187 207 213 222 228 231 231 226 227 225 225 225 226 232 233 234 227 213 213 209 226 228 230 232 233 236 241 235 224 226 228 232 234 237 240 239 234 230 224 216 212 208 216 224 225 201 218 232 237
204 198 197 195 193 193 193 192 194 195 198 200 201 202 203 204 204 199 204 207 211 214 214 218 219 220 219 221 220 227 230 211 191 191 190 189 191 203 212 218 227 230 233 231 230 229 227 224 225 230 233 235 225 215 210 203 223 229 231 235 238 240 244 228 227 231 229 234 239 242 244 245 242 238 229 219 214 204 205 223 215 197 223 223 233
204 204 198 193 194 192 192 193 193 194 198 200 199 201 201 201 203 200 206 208 213 213 212 216 219 220 220 221 219 221 227 208 183 182 187 189 194 208 209 217 225 228 229 233 231 232 232 227 226 229 233 233 225 217 211 203 222 228 229 233 240 243 244 194 226 234 230 226 238 239 245 244 242 240 237 227 218 211 215 224 212 207 220 220 224
218 205 192 191 193 193 192 192 193 194 198 199 200 201 201 201 201 202 206 208 212 213 213 215 218 221 220 221 220 217 218 211 183 184 186 192 194 200 210 213 223 226 227 230 231 231 232 234 230 228 233 236 231 222 215 205 217 227 227 233 240 246 240 212 225 223 233 232 234 227 234 236 234 235 238 234 225 222 222 222 218 213 217 221 216
216 209 200 190 190 192 192 193 193 196 195 196 197 199 197 198 199 201 205 206 211 213 215 217 219 223 220 220 223 219 211 206 187 184 189 191 197 198 210 213 218 221 224 228 229 231 231 232 238 229 226 231 233 232 224 214 216 225 229 234 237 245 239 231 228 217 229 234 237 234 234 235 234 233 234 233 229 223 224 225 221 216 214 217 218
224 198 192 199 194 189 189 192 194 193 193 193 196 200 199 196 197 200 202 203 207 211 213 216 219 222 220 218 220 218 200 194 182 190 189 194 196 200 206 215 212 218 225 228 228 230 233 235 238 233 227 226 228 231 231 226 221 225 236 237 242 245 244 237 236 228 232 240 243 244 241 236 233 231 232 231 230 226 222 222 221 219 216 216 213
242 207 194 188 192 188 187 184 185 187 191 192 193 197 194 195 196 195 199 202 206 209 212 213 218 222 221 214 208 200 190 196 183 186 196 195 199 201 207 212 211 214 223 228 222 229 229 234 240 237 232 230 228 229 231 231 226 230 238 242 243 245 244 243 238 243 258 276 267 249 246 241 237 236 236 238 235 229 227 226 225 224 224 224 228
275 197 205 195 181 183 181 182 182 185 185 185 191 192 193 195 193 193 195 197 201 207 209 209 214 218 221 216 202 192 194 188 193 188 195 202 200 201 208 218 214 213 220 229 221 224 232 233 245 245 238 237 235 234 235 235 235 234 236 241 246 248 249 248 289 0 315 255 251 254 251 245 242 246 245 241 240 236 234 231 238 242 238 234 235
293 192 193 190 183 175 169 173 178 179 181 179 184 187 190 187 191 192 191 197 201 204 205 200 208 212 214 214 203 197 195 200 199 203 199 198 201 203 209 212 219 218 224 235 249 279 341 336 347 336 287 269 261 260 265 257 249 255 259 264 272 281 271 265 246 137 234 251 247 244 249 251 250 253 256 250 248 257 323 58 223 220 223 223 225
317 205 180 168 165 156 159 166 171 172 171 179 182 182 180 182 188 184 187 195 196 197 198 194 201 201 206 206 201 204 202 203 211 195 196 199 212 226 229 239 248 253 259 276 292 292 294 297 310 328 341 299 255 247 255 253 247 242 245 248 248 250 255 257 239 179 209 242 247 247 255 303 285 263 258 259 235 153 169 208 211 217 211 218 224
324 236 170 162 154 157 158 160 158 160 164 165 171 174 176 180 183 181 187 190 191 195 191 190 194 195 206 203 204 203 210 184 119 94 134 167 187 192 195 219 218 215 232 244 250 255 263 266 263 266 273 267 253 250 257 261 257 250 245 236 237 244 252 252 246 204 214 240 251 253 239 246 256 270 271 278 244 214 208 213 216 221 213 217 221
336 309 197 165 162 164 165 165 157 155 158 155 161 172 178 182 180 183 187 188 190 199 190 192 195 196 203 201 201 205 170 114 149 147 159 161 157 169 186 197 191 201 219 234 232 243 245 263 271 276 277 277 268 267 263 254 250 269 272 272 266 261 263 270 277 252 240 246 254 261 246 237 246 250 255 246 236 239 220 217 219 224 217 211 215
5 1 350 162 169 168 160 153 149 142 101 70 53 37 5 355 325 197 40 353 232 195 192 193 200 201 193 191 188 155 126 163 180 30 57 77 155 158 175 186 177 187 204 191 205 166 351 325 330 346 359 322 318 315 318 311 299 280 273 275 272 271 272 267 269 262 246 244 251 253 251 246 246 246 250 246 233 239 233 231 226 225 220 210 217
19 5 6 35 89 128 144 146 150 131 122 117 99 73 56 55 37 34 2 7 16 358 150 182 165 138 109 41 321 190 181 152 114 100 91 81 70 73 70 67 68 72 73 118 113 86 62 41 31 19 1 5 335 324 318 318 316 312 309 305 302 300 292 288 279 278 270 259 261 261 257 254 251 246 245 245 242 234 232 226 227 219 220 215 218
38 12 18 21 43 106 120 128 121 113 121 117 111 108 89 49 41 40 53 74 69 57 68 90 94 103 117 100 55 59 85 103 110 105 90 81 82 81 78 85 94 113 121 98 53 66 52 48 12 4 359 358 351 339 334 337 328 323 316 313 303 296 292 285 284 281 279 274 267 261 260 258 257 252 246 242 241 237 231 225 227 222 220 220 220
53 22 12 17 48 76 103 115 120 118 113 114 117 119 108 98 58 37 39 57 68 73 70 73 80 84 93 106 106 62 61 88 101 93 86 85 83 84 81 78 74 78 91 100 87 71 77 73 33 9 360 354 325 319 312 304 300 299 300 301 298 295 296 294 293 292 288 283 277 271 267 262 258 257 253 251 247 243 236 231 224 224 225 223 223
47 36 27 32 43 59 87 103 115 120 123 119 117 116 116 111 106 91 45 50 62 64 65 73 77 86 90 86 97 116 129 118 97 84 82 89 91 89 81 59 47 40 65 63 87 71 45 51 22 339 333 318 314 316 309 303 300 297 295 295 297 298 294 293 294 289 284 281 281 277 273 270 265 262 257 253 249 247 238 234 230 226 227 226 225
45 50 39 43 63 66 74 98 106 107 113 115 117 114 106 105 109 110 106 95 68 57 50 61 82 82 74 97 106 105 107 108 97 94 98 97 96 78 79 68 59 47 95 119 103 117 109 137 220 248 272 282 288 293 291 288 286 288 291 288 286 290 291 292 294 291 291 288 285 281 277 273 269 266 262 257 251 247 242 233 228 226 224 222 221
21 48 56 55 58 68 79 88 97 106 109 111 110 106 106 104 96 86 88 90 85 95 96 56 39 93 114 103 115 120 124 121 123 124 116 115 110 127 115 80 71 52 46 60 108 121 132 141 257 270 257 269 270 264 273 284 293 297 299 303 304 303 302 301 295 294 291 290 285 281 277 273 270 264 261 260 259 254 249 241 233 230 230 227 223
30 39 36 52 58 53 58 71 92 99 104 107 109 108 112 119 116 113 111 108 104 89 76 58 75 57 94 110 133 135 134 135 139 142 146 148 160 141 70 74 76 72 76 66 81 83 84 73 239 269 262 266 275 286 301 310 310 310 309 309 307 305 304 302 300 298 296 290 283 279 275 270 266 265 263 259 255 253 254 253 250 248 250 252 246
22 18 29 44 63 73 66 67 76 94 99 109 115 125 129 128 130 133 127 123 123 124 107 127 119 98 79 65 87 84 97 113 106 108 130 160 177 62 84 97 107 97 77 60 56 57 46 352 310 334 331 322 323 326 320 318 316 314 310 308 304 303 304 305 304 301 297 295 290 285 278 273 267 263 261 262 258 253 249 249 253 252 247 242 238
41 37 35 46 61 62 65 66 70 76 80 88 113 124 123 129 135 132 130 127 122 121 122 104 84 81 79 71 105 112 102 112 122 107 126 130 120 65 60 62 73 88 90 84 180 138 228 270 301 322 307 326 324 325 317 313 315 311 310 305 305 302 304 303 301 300 295 287 283 282 281 278 271 265 259 258 259 260 261 260 260 258 251 238 234
52 48 54 57 56 61 65 67 65 68 68 69 67 74 83 89 85 80 84 94 90 81 74 63 58 51 33 23 43 111 110 56 60 69 60 57 69 85 84 81 90 88 76 41 338 4 348 357 348 328 329 325 315 312 317 313 311 309 309 310 310 312 314 314 310 310 310 314 314 308 300 293 283 271 261 256 253 250 251 250 249 253 256 249 236
60 52 50 56 59 57 62 64 65 63 65 69 65 67 70 72 78 85 87 86 85 82 73 67 58 44 25 33 30 52 75 77 62 56 49 44 47 51 52 45 31 23 14 360 2 356 355 337 316 308 313 310 314 318 318 317 314 314 316 316 313 311 308 310 315 322 327 325 324 324 323 316 308 296 282 269 261 253 250 250 251 247 249 250 246
74 64 60 55 62 65 61 61 60 62 64 66 68 70 70 73 75 81 82 82 83 80 76 69 62 47 37 39 40 53 73 64 55 48 39 34 21 18 24 29 27 16 10 2 350 338 321 298 287 292 304 323 328 336 333 334 325 321 315 310 304 301 307 316 331 335 334 331 327 329 331 331 325 328 327 319 298 279 261 254 257 265 274 273 259
75 72 66 62 61 67 66 62 60 61 63 65 63 64 68 69 72 71 73 73 71 71 72 66 58 51 34 33 35 42 53 43 38 34 25 21 18 17 11 11 16 15 360 349 333 324 309 301 300 322 343 348 352 344 341 334 323 315 310 308 311 315 324 330 334 331 330 328 324 325 333 343 348 353 353 353 6 4 354 27 68 79 82 76 57
81 77 75 71 67 66 69 68 67 68 65 64 63 62 63 65 66 68 69 68 66 63 63 60 52 46 42 30 32 39 48 35 32 26 21 14 12 12 11 9 5 2 352 332 317 303 299 309 335 1 360 352 342 330 326 313 309 311 317 317 318 327 332 338 336 334 328 323 324 332 349 5 13 15 18 21 25 34 43 44 49 62 66 73 84
86 83 78 75 74 72 67 69 69 70 71 73 73 67 63 63 62 63 67 68 64 60 59 52 47 41 36 24 28 37 36 30 25 20 17 14 15 13 10 5 359 355 355 352 346 349 348 357 1 1 1 345 328 313 296 283 295 317 329 329 329 337 341 345 340 334 333 330 328 327 330 339 3 29 46 48 54 58 55 57 60 63 65 69 73
85 82 80 76 72 71 69 66 71 72 74 72 68 67 62 61 61 59 61 64 62 60 54 51 46 43 38 34 33 34 28 26 23 17 14 10 12 13 10 9 11 12 15 15 12 14 14 9 4 3 1 354 343 337 325 322 319 338 341 340 343 343 343 339 329 318 318 331 335 334 344 351 347 344 352 22 49 75 83 83 81 76 74 77 81
83 82 79 78 75 71 70 69 68 69 69 69 71 69 68 66 66 64 64 66 66 63 60 57 55 52 48 45 40 37 32 29 26 19 15 13 14 15 18 19 23 25 23 16 12 14 12 10 3 1 355 349 344 338 338 339 344 350 352 356 349 340 329 334 328 327 330 337 337 333 344 2 13 13 20 23 23 18 32 47 57 66 77 82 86
78 80 81 79 77 75 71 71 69 69 71 72 71 72 71 70 70 73 73 73 73 70 64 62 58 54 52 48 42 38 35 31 26 20 15 10 11 17 21 19 24 28 26 21 17 15 9 5 360 354 352 346 343 338 342 345 349 353 352 348 350 352 355 346 340 339 334 329 332 347 357 2 10 18 24 32 32 35 42 40 42 63 72 80 81
76 78 79 80 79 76 70 67 70 70 70 67 65 66 66 66 66 64 59 57 58 60 59 56 54 54 52 49 44 41 37 34 30 27 21 15 12 17 20 24 28 29 27 24 20 14 11 3 355 351 358 356 351 349 346 343 351 355 351 345 349 347 338 348 345 346 337 335 327 333 349 0 359 358 359 13 46 69 74 71 66 63 68 70 75
77 77 78 77 79 77 77 75 74 73 74 74 72 67 63 62 60 58 58 58 58 56 54 54 54 53 51 49 45 41 39 36 32 24 23 19 15 10 22 25 26 24 25 22 16 12 7 358 345 352 356 349 349 349 347 349 351 358 353 348 340 340 343 349 346 338 333 342 343 329 343 6 3 356 357 1 354 358 22 54 94 109 111 107 102
77 78 80 81 82 81 81 79 78 78 78 76 76 76 70 68 64 61 62 62 60 57 54 53 52 48 46 44 43 40 40 39 36 29 26 20 16 10 17 21 27 27 25 24 16 12 8 6 2 358 358 1 359 353 348 351 352 349 353 341 335 338 349 353 342 338 341 330 325 325 314 347 18 19 9 7 5 14 20 16 10 16 57 100 120
77 79 81 82 83 83 82 82 80 79 77 78 79 80 78 75 72 69 65 63 61 59 57 55 54 51 45 40 41 40 38 38 36 31 29 26 19 17 21 21 21 19 17 21 18 14 13 12 9 3 359 1 3 2 356 348 351 346 337 339 347 348 349 349 341 323 321 320 313 321 317 325 18 8 13 13 38 42 55 49 38 38 30 30 49